period_start,C,m1,H,J0,J1,J2,J3,J4,J5,JA,JB,JC,JD,JJ,JK,JN,#
2016-09-01 00:04:31,0.04,0.26,0.00,26.65,29.71,32.17,14.35,46.38,1026.06,2027.00,3454.23,3045.92,3457.17,599.90,594.16,4.82,0000 0000 0000 0000 000000
2016-09-01 00:09:32,0.05,0.26,0.00,26.69,29.73,32.15,14.30,46.35,1025.97,2026.99,3453.10,3045.09,3456.30,599.77,593.96,4.87,0000 0000 0000 0000 000000
2016-09-01 00:14:34,0.05,0.27,0.00,26.70,29.76,32.19,14.41,46.47,1025.98,2026.97,3451.93,3044.31,3455.48,600.12,594.06,4.92,0000 0000 0000 0000 000000
2016-09-01 00:19:34,0.04,0.27,0.00,26.73,29.77,32.18,14.42,46.42,1026.16,2026.91,3450.85,3043.58,3454.57,600.49,594.52,4.97,0000 0000 0000 0000 000000
2016-09-01 00:24:36,0.02,0.27,0.00,26.78,29.80,32.20,14.33,46.39,1026.27,2026.75,3449.80,3042.84,3453.69,599.71,593.83,5.02,0000 0000 0000 0000 000000
2016-09-01 00:29:37,0.02,0.27,0.00,26.80,29.82,32.23,14.37,46.27,1026.32,2026.49,3448.71,3042.02,3452.77,600.02,594.15,5.07,0000 0000 0000 0000 000000
2016-09-01 00:34:38,0.03,0.27,0.00,26.83,29.85,32.25,14.39,46.42,1026.33,2026.15,3447.56,3041.16,3451.78,600.36,594.41,5.12,0000 0000 0000 0000 000000
2016-09-01 00:39:40,0.04,0.28,0.00,26.86,29.87,32.29,14.37,46.41,1026.33,2026.02,3446.41,3040.37,3450.80,599.59,593.70,5.17,0000 0000 0000 0000 000000
2016-09-01 00:44:41,0.04,0.28,0.00,26.91,29.90,32.26,14.34,46.39,1026.33,2026.00,3445.37,3039.71,3449.88,599.71,593.61,5.22,0000 0000 0000 0000 000000
2016-09-01 00:49:42,0.04,0.28,0.00,26.95,29.93,32.28,14.38,46.40,1026.27,2026.00,3444.27,3038.87,3448.98,600.14,593.88,5.27,0000 0000 0000 0000 000000
2016-09-01 00:54:43,0.04,0.28,0.00,26.99,29.96,32.33,14.28,46.45,1026.12,2025.98,3443.25,3038.04,3448.08,599.89,593.51,5.32,0000 0000 0000 0000 000000
2016-09-01 00:59:45,0.05,0.29,0.00,27.01,29.99,32.36,14.35,46.42,1026.07,2025.97,3442.15,3037.24,3447.16,599.85,593.56,5.37,0000 0000 0000 0000 000000
2016-09-01 01:04:46,0.02,0.29,0.00,27.06,30.02,32.36,14.33,46.43,1026.06,2025.80,3441.16,3036.56,3446.32,599.97,593.33,5.42,0000 0000 0000 0000 000000
2016-09-01 01:09:47,-0.01,0.29,0.00,27.12,30.06,32.42,14.32,46.43,1025.97,2025.27,3440.17,3035.83,3445.29,599.95,593.25,5.48,0000 0000 0000 0000 000000
2016-09-01 01:14:48,0.03,0.29,0.00,27.15,30.09,32.45,14.30,46.35,1025.94,2025.05,3439.12,3035.03,3444.45,599.84,592.97,5.53,0000 0000 0000 0000 000000
2016-09-01 01:19:50,0.05,0.29,0.00,27.19,30.13,32.48,14.39,46.45,1025.93,2025.00,3437.96,3034.22,3443.50,600.18,593.14,5.58,0000 0000 0000 0000 000000
2016-09-01 01:24:51,0.05,0.29,0.00,27.23,30.16,32.51,14.35,46.39,1025.91,2025.00,3436.92,3033.44,3442.55,600.26,593.30,5.63,0000 0000 0000 0000 000000
2016-09-01 01:29:53,0.05,0.30,0.00,27.28,30.20,32.53,14.35,46.42,1025.91,2025.00,3435.82,3032.71,3441.68,600.23,593.25,5.68,0000 0000 0000 0000 000000
2016-09-01 01:34:54,0.03,0.30,0.00,27.32,30.23,32.57,14.35,46.40,1025.91,2024.93,3434.66,3031.92,3440.62,599.81,592.68,5.73,0000 0000 0000 0000 000000
2016-09-01 01:39:55,0.01,0.30,0.00,27.37,30.26,32.60,14.35,46.44,1025.91,2024.54,3433.53,3031.06,3439.72,599.96,592.73,5.78,0000 0000 0000 0000 000000
2016-09-01 01:44:57,0.03,0.30,0.00,27.41,30.30,32.65,14.35,46.30,1025.91,2024.16,3432.45,3030.17,3438.75,600.39,593.03,5.83,0000 0000 0000 0000 000000
2016-09-01 01:49:58,0.04,0.30,0.00,27.46,30.33,32.68,14.25,46.21,1025.92,2024.02,3431.35,3029.44,3437.75,599.82,592.43,5.88,0000 0000 0000 0000 000000
2016-09-01 01:54:59,0.05,0.30,0.00,27.52,30.37,32.70,14.28,46.33,1025.91,2024.00,3430.13,3028.58,3436.76,599.70,592.15,5.93,0000 0000 0000 0000 000000
2016-09-01 02:00:01,0.03,0.31,0.00,27.54,30.41,32.74,14.40,46.44,1025.91,2024.00,3429.00,3027.85,3435.85,600.48,592.88,5.98,0000 0000 0000 0000 000000
2016-09-01 02:05:02,0.05,0.31,0.00,27.58,30.44,32.77,14.36,46.40,1025.92,2023.98,3427.89,3026.95,3434.83,600.38,592.77,6.03,0000 0000 0000 0000 000000
2016-09-01 02:10:03,0.03,0.31,0.00,27.63,30.48,32.81,14.32,46.42,1025.92,2023.78,3426.85,3026.08,3433.81,600.19,592.55,6.08,0000 0000 0000 0000 000000
2016-09-01 02:15:04,0.01,0.31,0.00,27.66,30.52,32.85,14.26,46.21,1025.91,2023.21,3425.67,3025.26,3432.79,599.80,592.06,6.13,0000 0000 0000 0000 000000
2016-09-01 02:20:06,0.04,0.31,0.00,27.71,30.56,32.90,14.32,46.38,1025.91,2023.01,3424.56,3024.48,3431.77,599.77,591.83,6.18,0000 0000 0000 0000 000000
2016-09-01 02:25:07,0.06,0.32,0.00,27.73,30.59,32.93,14.24,46.33,1025.92,2023.00,3423.37,3023.54,3430.71,599.90,591.94,6.23,0000 0000 0000 0000 000000
2016-09-01 02:30:08,0.04,0.32,0.00,27.77,30.63,32.97,14.31,46.47,1025.91,2023.00,3422.05,3022.75,3429.78,600.02,591.88,6.28,0000 0000 0000 0000 000000
2016-09-01 02:35:09,0.07,0.32,0.00,27.80,30.66,33.00,14.35,46.48,1025.91,2022.94,3420.71,3021.74,3428.58,600.18,591.99,6.33,0000 0000 0000 0000 000000
2016-09-01 02:40:11,0.03,0.32,0.00,27.84,30.69,33.04,14.26,46.43,1025.91,2022.62,3419.43,3020.74,3427.37,599.95,591.79,6.38,0000 0000 0000 0000 000000
2016-09-01 02:45:12,0.01,0.33,0.00,27.88,30.73,33.08,14.29,46.38,1025.91,2022.15,3418.06,3019.80,3426.27,599.96,591.88,6.43,0000 0000 0000 0000 000000
2016-09-01 02:50:13,0.06,0.33,0.00,27.92,30.76,33.11,14.32,46.42,1025.90,2022.02,3416.66,3018.77,3425.15,600.10,591.77,6.48,0000 0000 0000 0000 000000
2016-09-01 02:55:14,0.06,0.33,0.00,27.94,30.79,33.17,14.32,46.45,1025.90,2022.00,3415.36,3017.76,3423.99,599.81,591.52,6.53,0000 0000 0000 0000 000000
2016-09-01 03:00:15,0.11,0.34,0.00,27.99,30.83,33.18,14.29,46.41,1025.90,2022.00,3413.24,3016.30,3422.25,599.80,591.31,6.58,0000 0000 0000 0000 000000
2016-09-01 03:05:17,0.19,0.34,0.00,28.04,30.86,33.20,14.25,46.30,1025.90,2021.99,3409.30,3013.44,3419.06,600.05,591.42,6.63,0000 0000 0000 0000 000000
2016-09-01 03:10:18,0.21,0.36,0.00,28.06,30.90,33.24,14.26,46.36,1025.90,2021.96,3404.91,3010.15,3415.44,599.91,591.23,6.68,0000 0000 0000 0000 000000
2016-09-01 03:15:19,0.18,0.36,0.00,28.09,30.94,33.29,14.27,46.38,1025.90,2021.40,3399.94,3006.63,3411.39,600.12,591.49,6.73,0000 0000 0000 0000 000000
2016-09-01 03:20:20,0.35,0.38,0.00,28.14,30.97,33.31,14.26,46.39,1025.89,2021.04,3392.64,3001.33,3405.51,599.88,591.10,6.78,0000 0000 0000 0000 000000
2016-09-01 03:25:22,0.25,0.40,0.00,28.19,31.01,33.33,14.27,46.46,1025.89,2021.00,3386.21,2996.78,3400.51,600.02,591.20,6.83,0000 0000 0000 0000 000000
2016-09-01 03:30:23,0.11,0.40,0.00,28.22,31.05,33.38,14.30,46.46,1025.89,2021.00,3383.52,2994.89,3398.40,600.19,591.19,6.88,0000 0000 0000 0000 000000
2016-09-01 03:35:24,0.08,0.41,0.00,28.25,31.08,33.42,14.30,46.31,1025.89,2020.98,3381.70,2993.63,3396.80,600.17,591.26,6.93,0000 0000 0000 0000 000000
2016-09-01 03:40:26,0.04,0.41,0.00,28.30,31.12,33.46,14.24,46.36,1025.89,2020.82,3380.36,2992.60,3395.61,600.08,590.97,6.98,0000 0000 0000 0000 000000
2016-09-01 03:45:27,0.02,0.41,0.00,28.35,31.16,33.49,14.33,46.33,1025.90,2020.29,3378.74,2991.46,3394.34,600.39,591.21,7.03,0000 0000 0000 0000 000000
2016-09-01 03:50:28,0.10,0.41,0.00,28.39,31.20,33.52,14.22,46.47,1025.90,2020.05,3376.47,2989.89,3392.51,599.70,590.33,7.08,0000 0000 0000 0000 000000
2016-09-01 03:55:29,0.08,0.42,0.00,28.44,31.24,33.56,14.24,46.59,1025.90,2020.00,3374.19,2988.22,3390.78,600.07,590.63,7.13,0000 0000 0000 0000 000000
2016-09-01 04:00:31,0.09,0.43,0.00,28.48,31.28,33.61,14.30,46.52,1025.90,2020.00,3372.25,2986.86,3389.30,600.13,590.65,7.18,0000 0000 0000 0000 000000
2016-09-01 04:05:32,0.10,0.43,0.00,28.53,31.32,33.63,14.30,46.54,1025.91,2019.97,3370.15,2985.40,3387.58,600.34,590.73,7.23,0000 0000 0000 0000 000000
2016-09-01 04:10:33,0.11,0.44,0.00,28.56,31.36,33.67,14.27,46.52,1025.92,2019.72,3367.18,2983.39,3385.33,600.14,590.54,7.28,0000 0000 0000 0000 000000
2016-09-01 04:15:35,0.08,0.44,0.00,28.61,31.39,33.72,14.21,46.45,1025.91,2019.20,3364.33,2981.48,3383.16,599.72,590.07,7.33,0000 0000 0000 0000 000000
2016-09-01 04:20:37,0.10,0.44,0.00,28.65,31.43,33.74,14.27,46.50,1025.91,2019.02,3362.01,2979.81,3381.30,600.10,590.33,7.38,0000 0000 0000 0000 000000
2016-09-01 04:25:38,0.08,0.45,0.00,28.67,31.46,33.80,14.26,46.40,1025.91,2019.00,3360.14,2978.52,3379.73,599.95,590.16,7.43,0000 0000 0000 0000 000000
2016-09-01 04:30:39,0.07,0.45,0.00,28.71,31.50,33.83,14.25,46.42,1025.92,2018.98,3358.58,2977.42,3378.46,599.65,589.90,7.48,0000 0000 0000 0000 000000
2016-09-01 04:35:40,0.02,0.46,0.00,28.73,31.54,33.87,14.17,46.43,1025.95,2018.68,3357.09,2976.37,3377.25,599.99,590.08,7.53,0000 0000 0000 0000 000000
2016-09-01 04:40:42,0.03,0.46,0.00,28.77,31.57,33.91,14.20,46.42,1025.94,2018.17,3355.69,2975.37,3376.07,599.91,589.91,7.58,0000 0000 0000 0000 000000
2016-09-01 04:45:43,0.06,0.46,0.00,28.79,31.61,33.95,14.29,46.44,1026.02,2018.01,3354.20,2974.28,3374.84,600.19,590.14,7.63,0000 0000 0000 0000 000000
2016-09-01 04:50:45,0.06,0.46,0.00,28.80,31.64,33.98,14.25,46.35,1026.03,2018.00,3352.81,2973.35,3373.73,600.38,590.34,7.68,0000 0000 0000 0000 000000
2016-09-01 04:55:46,0.06,0.47,0.00,28.83,31.67,34.02,14.29,46.26,1026.12,2018.00,3351.51,2972.43,3372.67,599.92,589.92,7.73,0000 0000 0000 0000 000000
2016-09-01 05:00:47,0.05,0.47,0.00,28.85,31.70,34.07,14.21,46.25,1026.13,2017.97,3350.27,2971.66,3371.69,600.06,590.03,7.79,0000 0000 0000 0000 000000
2016-09-01 05:05:48,0.06,0.47,0.00,28.87,31.72,34.11,14.22,46.31,1026.09,2017.93,3348.96,2970.73,3370.61,600.12,590.00,7.84,0000 0000 0000 0000 000000
2016-09-01 05:10:50,-0.00,0.47,0.00,28.91,31.75,34.13,14.23,46.22,1026.00,2017.44,3347.68,2969.84,3369.58,600.10,589.83,7.89,0000 0000 0000 0000 000000
2016-09-01 05:15:51,0.03,0.47,0.00,28.93,31.78,34.15,14.35,46.33,1025.98,2017.06,3346.54,2969.00,3368.65,600.23,589.95,7.94,0000 0000 0000 0000 000000
2016-09-01 05:20:52,0.05,0.48,0.00,28.95,31.81,34.16,14.21,46.38,1025.98,2017.00,3345.28,2968.11,3367.69,599.96,589.66,7.99,0000 0000 0000 0000 000000
2016-09-01 05:25:53,0.06,0.48,0.00,28.98,31.83,34.20,14.21,46.23,1026.01,2017.00,3344.07,2967.31,3366.65,599.94,589.50,8.04,0000 0000 0000 0000 000000
2016-09-01 05:30:54,0.05,0.48,0.00,29.01,31.86,34.24,14.32,46.38,1026.00,2017.00,3342.90,2966.52,3365.71,600.17,589.76,8.09,0000 0000 0000 0000 000000
2016-09-01 05:35:55,0.05,0.48,0.00,29.04,31.89,34.28,14.25,46.27,1025.99,2016.99,3341.78,2965.78,3364.75,599.96,589.47,8.14,0000 0000 0000 0000 000000
2016-09-01 05:40:57,0.05,0.49,0.00,29.07,31.92,34.29,14.22,46.27,1026.03,2016.89,3340.56,2964.89,3363.70,599.88,589.36,8.19,0000 0000 0000 0000 000000
2016-09-01 05:45:58,0.01,0.49,0.00,29.08,31.96,34.33,14.22,46.40,1026.16,2016.51,3339.48,2964.06,3362.78,599.96,589.46,8.24,0000 0000 0000 0000 000000
2016-09-01 05:50:59,0.03,0.49,0.00,29.12,31.99,34.37,14.26,46.34,1026.29,2016.14,3338.26,2963.21,3361.78,599.75,589.31,8.29,0000 0000 0000 0000 000000
2016-09-01 05:56:00,0.04,0.49,0.00,29.14,32.01,34.39,14.24,46.37,1026.38,2016.02,3337.19,2962.45,3360.91,599.77,589.28,8.34,0000 0000 0000 0000 000000
2016-09-01 06:01:02,0.04,0.49,0.00,29.16,32.05,34.42,14.25,46.53,1026.38,2016.00,3336.13,2961.77,3359.96,599.99,589.49,8.39,0000 0000 0000 0000 000000
2016-09-01 06:06:03,0.05,0.50,0.00,29.18,32.08,34.43,14.21,46.49,1026.38,2016.00,3335.00,2960.98,3359.02,599.94,589.46,8.44,0000 0000 0000 0000 000000
2016-09-01 06:11:04,0.05,0.50,0.00,29.21,32.11,34.46,14.26,46.62,1026.38,2016.00,3333.92,2960.14,3358.14,600.17,589.54,8.49,0000 0000 0000 0000 000000
2016-09-01 06:16:05,0.05,0.50,0.00,29.26,32.14,34.50,14.20,46.51,1026.38,2015.97,3332.85,2959.46,3357.20,599.86,589.17,8.54,0000 0000 0000 0000 000000
2016-09-01 06:21:06,0.03,0.50,0.00,29.28,32.17,34.55,14.19,46.45,1026.38,2015.84,3331.73,2958.70,3356.41,600.06,589.33,8.59,0000 0000 0000 0000 000000
2016-09-01 06:26:08,-0.00,0.50,0.00,29.31,32.20,34.56,14.13,46.39,1026.38,2015.39,3330.61,2957.90,3355.46,599.79,589.04,8.64,0000 0000 0000 0000 000000
2016-09-01 06:31:09,0.03,0.51,0.00,29.33,32.23,34.58,14.24,46.58,1026.40,2015.06,3329.61,2957.08,3354.52,600.11,589.28,8.69,0000 0000 0000 0000 000000
2016-09-01 06:36:10,0.05,0.51,0.00,29.36,32.26,34.62,14.21,46.39,1026.39,2015.01,3328.55,2956.40,3353.70,599.91,589.03,8.74,0000 0000 0000 0000 000000
2016-09-01 06:41:12,0.05,0.51,0.00,29.39,32.29,34.64,14.17,46.42,1026.38,2015.00,3327.54,2955.70,3352.79,599.87,588.95,8.79,0000 0000 0000 0000 000000
2016-09-01 06:46:13,0.03,0.51,0.00,29.41,32.32,34.66,14.17,46.35,1026.39,2014.98,3326.42,2954.97,3351.94,600.07,589.15,8.84,0000 0000 0000 0000 000000
2016-09-01 06:51:14,0.05,0.52,0.00,29.45,32.35,34.70,14.25,46.40,1026.39,2014.92,3325.40,2954.14,3351.02,600.27,589.29,8.89,0000 0000 0000 0000 000000
2016-09-01 06:56:15,0.01,0.52,0.00,29.49,32.38,34.73,14.30,46.41,1026.39,2014.45,3324.18,2953.28,3350.03,600.13,588.99,8.94,0000 0000 0000 0000 000000
2016-09-01 07:01:17,0.03,0.52,0.00,29.53,32.41,34.76,14.23,46.36,1026.40,2014.14,3323.06,2952.53,3349.08,599.99,588.78,8.99,0000 0000 0000 0000 000000
2016-09-01 07:06:18,0.03,0.52,0.00,29.56,32.44,34.78,14.19,46.43,1026.39,2014.01,3321.94,2951.79,3348.13,600.03,588.76,9.04,0000 0000 0000 0000 000000
2016-09-01 07:11:19,0.05,0.52,0.00,29.59,32.46,34.81,14.23,46.42,1026.39,2014.00,3320.95,2951.02,3347.31,599.64,588.22,9.09,0000 0000 0000 0000 000000
2016-09-01 07:16:21,0.05,0.52,0.00,29.61,32.50,34.86,14.21,46.45,1026.40,2014.00,3320.03,2950.32,3346.55,600.27,589.03,9.14,0000 0000 0000 0000 000000
2016-09-01 07:21:22,0.04,0.53,0.00,29.65,32.53,34.85,14.28,46.38,1026.45,2013.98,3319.05,2949.68,3345.67,600.17,588.77,9.19,0000 0000 0000 0000 000000
2016-09-01 07:26:23,0.01,0.53,0.00,29.67,32.56,34.89,14.28,46.39,1026.59,2013.79,3318.01,2948.96,3344.88,600.18,588.82,9.24,0000 0000 0000 0000 000000
2016-09-01 07:31:24,0.01,0.53,0.00,29.69,32.59,34.93,14.13,46.28,1026.53,2013.26,3316.82,2948.09,3343.92,599.94,588.57,9.29,0000 0000 0000 0000 000000
2016-09-01 07:36:25,0.04,0.53,0.00,29.72,32.61,34.96,14.19,46.32,1026.70,2013.06,3315.70,2947.36,3343.00,599.84,588.44,9.34,0000 0000 0000 0000 000000
2016-09-01 07:41:27,0.04,0.53,0.00,29.76,32.64,34.97,14.20,46.29,1026.52,2013.00,3314.66,2946.68,3342.09,599.93,588.34,9.39,0000 0000 0000 0000 000000
2016-09-01 07:46:28,0.04,0.53,0.00,29.79,32.67,35.02,14.22,46.33,1026.53,2013.00,3313.67,2945.98,3341.24,600.30,588.58,9.44,0000 0000 0000 0000 000000
2016-09-01 07:51:29,0.05,0.54,0.00,29.82,32.70,35.04,14.13,46.43,1026.70,2013.00,3312.73,2945.22,3340.53,599.76,588.21,9.49,0000 0000 0000 0000 000000
2016-09-01 07:56:31,0.04,0.54,0.00,29.86,32.72,35.04,14.22,46.48,1026.84,2012.95,3311.82,2944.63,3339.77,599.84,588.24,9.54,0000 0000 0000 0000 000000
2016-09-01 08:01:32,0.03,0.54,0.00,29.91,32.75,35.08,14.20,46.39,1026.87,2012.88,3310.63,2944.00,3338.89,600.00,588.32,9.59,0000 0000 0000 0000 000000
2016-09-01 08:06:33,0.00,0.54,0.00,29.95,32.78,35.10,14.22,46.33,1026.87,2012.43,3309.64,2943.18,3338.00,600.02,588.21,9.64,0000 0000 0000 0000 000000
2016-09-01 08:11:34,0.03,0.54,0.00,30.00,32.81,35.12,14.19,46.42,1026.87,2012.10,3308.55,2942.56,3337.11,600.04,588.17,9.69,0000 0000 0000 0000 000000
2016-09-01 08:16:35,0.04,0.55,0.00,30.03,32.84,35.16,14.20,46.27,1026.87,2012.01,3307.29,2941.71,3336.15,600.11,588.18,9.74,0000 0000 0000 0000 000000
2016-09-01 08:21:36,0.04,0.55,0.00,30.07,32.87,35.19,14.16,46.27,1026.87,2012.00,3306.18,2940.96,3335.20,599.63,587.64,9.79,0000 0000 0000 0000 000000
2016-09-01 08:26:38,0.06,0.55,0.00,30.11,32.90,35.23,14.18,46.26,1026.87,2012.00,3305.05,2940.10,3334.31,600.04,588.04,9.84,0000 0000 0000 0000 000000
2016-09-01 08:31:39,0.05,0.55,0.00,30.16,32.93,35.26,14.29,46.32,1026.87,2011.99,3303.99,2939.33,3333.39,600.29,588.17,9.89,0000 0000 0000 0000 000000
2016-09-01 08:36:40,0.05,0.56,0.00,30.18,32.96,35.29,14.25,46.26,1026.87,2011.98,3302.83,2938.58,3332.50,600.07,587.91,9.95,0000 0000 0000 0000 000000
2016-09-01 08:41:42,0.04,0.56,0.00,30.21,32.99,35.33,14.15,46.28,1026.87,2011.86,3301.54,2937.68,3331.37,599.88,587.62,10.00,0000 0000 0000 0000 000000
2016-09-01 08:46:43,0.01,0.56,0.00,30.23,33.02,35.38,14.20,46.37,1026.87,2011.40,3300.21,2936.72,3330.33,600.11,587.80,10.05,0000 0000 0000 0000 000000
2016-09-01 08:51:44,0.04,0.56,0.00,30.25,33.06,35.42,14.18,46.39,1026.87,2011.06,3298.75,2935.69,3329.16,599.99,587.60,10.10,0000 0000 0000 0000 000000
2016-09-01 08:56:46,0.07,0.57,0.00,30.26,33.09,35.45,14.14,46.38,1026.87,2011.01,3297.24,2934.58,3327.83,599.86,587.54,10.15,0000 0000 0000 0000 000000
2016-09-01 09:01:47,0.08,0.57,0.00,30.29,33.12,35.48,14.16,46.33,1026.87,2011.00,3295.55,2933.37,3326.55,599.78,587.28,10.20,0000 0000 0000 0000 000000
2016-09-01 09:06:49,0.10,0.57,0.00,30.29,33.15,35.53,14.11,46.23,1026.87,2010.99,3293.44,2931.84,3324.88,599.63,587.28,10.25,0000 0000 0000 0000 000000
2016-09-01 09:11:50,0.09,0.58,0.00,30.30,33.18,35.57,14.24,46.40,1026.90,2010.88,3291.29,2930.32,3323.13,600.06,587.64,10.30,0000 0000 0000 0000 000000
2016-09-01 09:16:51,0.06,0.58,0.00,30.33,33.21,35.58,14.10,46.38,1026.89,2010.49,3289.13,2928.77,3321.37,599.56,587.10,10.35,0000 0000 0000 0000 000000
2016-09-01 09:21:53,0.07,0.59,0.00,30.34,33.23,35.63,14.15,46.40,1026.88,2010.07,3287.15,2927.34,3319.74,599.91,587.42,10.40,0000 0000 0000 0000 000000
2016-09-01 09:26:54,0.08,0.59,0.00,30.37,33.26,35.66,14.14,46.39,1026.91,2010.01,3285.25,2925.92,3318.12,600.02,587.40,10.45,0000 0000 0000 0000 000000
2016-09-01 09:31:55,0.11,0.60,0.00,30.39,33.29,35.68,14.24,46.35,1026.92,2010.00,3283.14,2924.51,3316.52,600.01,587.43,10.50,0000 0000 0000 0000 000000
2016-09-01 09:36:57,0.09,0.60,0.00,30.42,33.31,35.71,14.16,46.42,1026.91,2010.00,3281.12,2923.02,3314.81,599.90,587.26,10.55,0000 0000 0000 0000 000000
2016-09-01 09:41:58,0.08,0.61,0.00,30.43,33.34,35.71,14.12,46.26,1026.92,2009.97,3279.36,2921.74,3313.38,599.64,586.89,10.60,0000 0000 0000 0000 000000
2016-09-01 09:46:59,0.06,0.61,0.00,30.46,33.36,35.73,14.23,46.42,1027.02,2009.83,3277.66,2920.58,3312.03,600.08,587.35,10.65,0000 0000 0000 0000 000000
2016-09-01 09:52:01,0.04,0.61,0.00,30.48,33.38,35.74,14.21,46.46,1027.28,2009.45,3275.87,2919.38,3310.61,600.00,587.46,10.70,0000 0000 0000 0000 000000
2016-09-01 09:57:02,0.07,0.61,0.00,30.49,33.40,35.77,14.19,46.38,1027.35,2009.16,3273.94,2918.02,3309.09,600.02,587.48,10.75,0000 0000 0000 0000 000000
2016-09-01 10:02:03,0.09,0.62,0.00,30.53,33.42,35.78,14.17,46.39,1027.32,2009.05,3271.95,2916.68,3307.60,600.28,587.58,10.80,0000 0000 0000 0000 000000
2016-09-01 10:07:05,0.09,0.62,0.00,30.53,33.45,35.82,14.15,46.33,1027.33,2009.01,3269.84,2915.25,3305.90,599.95,587.35,10.85,0000 0000 0000 0000 000000
2016-09-01 10:12:06,0.09,0.63,0.00,30.54,33.47,35.83,14.19,46.34,1027.33,2009.00,3267.87,2913.87,3304.40,600.29,587.65,10.90,0000 0000 0000 0000 000000
2016-09-01 10:17:07,0.06,0.63,0.00,30.56,33.49,35.88,14.20,46.31,1027.33,2009.00,3266.28,2912.79,3303.01,600.39,587.68,10.95,0000 0000 0000 0000 000000
2016-09-01 10:22:08,0.09,0.64,0.00,30.57,33.51,35.87,14.24,46.30,1027.35,2009.00,3264.57,2911.65,3301.70,600.22,587.49,11.00,0000 0000 0000 0000 000000
2016-09-01 10:27:10,0.11,0.64,0.00,30.58,33.52,35.90,14.18,46.33,1027.35,2008.97,3262.33,2910.04,3299.99,600.18,587.49,11.05,0000 0000 0000 0000 000000
2016-09-01 10:32:11,0.10,0.65,0.00,30.57,33.55,35.90,14.20,46.44,1027.36,2008.79,3259.33,2908.13,3297.80,599.92,587.25,11.10,0000 0000 0000 0000 000000
2016-09-01 10:37:13,0.05,0.65,0.00,30.57,33.56,35.95,14.23,46.27,1027.36,2008.38,3257.32,2906.79,3296.34,600.03,587.45,11.15,0000 0000 0000 0000 000000
2016-09-01 10:42:14,0.05,0.65,0.00,30.58,33.58,35.97,14.07,46.27,1027.35,2008.07,3255.69,2905.73,3295.03,599.71,586.97,11.20,0000 0000 0000 0000 000000
2016-09-01 10:47:15,0.09,0.66,0.00,30.58,33.60,35.95,14.23,46.29,1027.36,2008.02,3253.76,2904.47,3293.57,600.60,587.90,11.25,0000 0000 0000 0000 000000
2016-09-01 10:52:17,0.08,0.66,0.00,30.57,33.61,36.02,14.19,46.23,1027.36,2008.00,3251.66,2903.13,3292.01,600.24,587.53,11.30,0000 0000 0000 0000 000000
2016-09-01 10:57:18,0.12,0.67,0.00,30.57,33.62,36.05,14.22,46.27,1027.36,2008.00,3249.20,2901.57,3290.30,600.30,587.61,11.35,0000 0000 0000 0000 000000
2016-09-01 11:02:20,0.16,0.67,0.00,30.55,33.63,36.06,14.21,46.30,1027.36,2008.00,3245.82,2899.38,3287.82,600.32,587.66,11.40,0000 0000 0000 0000 000000
2016-09-01 11:07:21,0.17,0.68,0.00,30.53,33.65,36.09,14.23,46.25,1027.36,2007.99,3242.22,2897.04,3285.19,600.08,587.49,11.45,0000 0000 0000 0000 000000
2016-09-01 11:12:22,0.15,0.69,0.00,30.53,33.65,36.14,14.23,46.39,1027.36,2007.96,3238.69,2894.78,3282.59,599.89,587.27,11.50,0000 0000 0000 0000 000000
2016-09-01 11:17:24,0.13,0.70,0.00,30.51,33.65,36.18,14.13,46.23,1027.36,2007.88,3235.54,2892.81,3280.37,599.68,587.33,11.55,0000 0000 0000 0000 000000
2016-09-01 11:22:25,0.13,0.71,0.00,30.50,33.66,36.20,14.18,46.27,1027.36,2007.90,3232.64,2890.93,3278.28,600.07,587.59,11.60,0000 0000 0000 0000 000000
2016-09-01 11:27:26,0.11,0.71,0.00,30.49,33.67,36.22,14.24,46.23,1027.36,2007.85,3229.79,2889.23,3276.32,600.28,587.77,11.65,0000 0000 0000 0000 000000
2016-09-01 11:32:28,0.18,0.72,0.00,30.46,33.67,36.25,14.22,46.30,1027.35,2007.82,3226.06,2886.90,3273.77,600.22,587.56,11.70,0000 0000 0000 0000 000000
2016-09-01 11:37:29,0.23,0.73,0.00,30.46,33.67,36.29,14.22,46.27,1027.36,2007.63,3220.87,2883.62,3270.02,599.91,587.45,11.75,0000 0000 0000 0000 000000
2016-09-01 11:42:30,0.19,0.74,0.00,30.42,33.67,36.33,14.23,46.24,1027.36,2007.59,3216.33,2880.72,3266.80,600.27,587.86,11.80,0000 0000 0000 0000 000000
2016-09-01 11:47:32,0.13,0.75,0.00,30.42,33.67,36.32,14.22,46.17,1027.36,2007.44,3212.81,2878.64,3264.33,599.94,587.61,11.85,0000 0000 0000 0000 000000
2016-09-01 11:52:33,0.16,0.76,0.00,30.40,33.67,36.35,14.14,46.16,1027.36,2007.42,3209.42,2876.57,3262.12,600.27,587.80,11.90,0000 0000 0000 0000 000000
2016-09-01 11:57:35,0.10,0.76,0.00,30.40,33.67,36.34,14.22,46.27,1027.36,2007.22,3206.39,2874.66,3259.95,600.19,587.84,11.95,0000 0000 0000 0000 000000
2016-09-01 12:02:36,0.13,0.77,0.00,30.39,33.67,36.37,14.18,46.34,1027.35,2007.09,3203.46,2872.79,3257.85,599.85,587.52,12.00,0000 0000 0000 0000 000000
2016-09-01 12:07:37,0.17,0.78,0.00,30.37,33.66,36.36,14.21,46.29,1027.33,2007.13,3199.87,2870.59,3255.41,599.91,587.59,12.05,0000 0000 0000 0000 000000
2016-09-01 12:12:39,0.15,0.79,0.00,30.36,33.65,36.34,14.24,46.16,1027.31,2007.08,3196.29,2868.28,3252.80,599.94,587.69,12.11,0000 0000 0000 0000 000000
2016-09-01 12:17:40,0.14,0.80,0.00,30.34,33.65,36.37,14.19,46.21,1027.34,2007.06,3193.15,2866.33,3250.46,599.81,587.58,12.16,0000 0000 0000 0000 000000
2016-09-01 12:22:41,0.13,0.80,0.00,30.32,33.65,36.38,14.16,46.25,1027.36,2007.08,3190.41,2864.64,3248.54,599.87,587.68,12.21,0000 0000 0000 0000 000000
2016-09-01 12:27:43,0.14,0.81,0.00,30.29,33.63,36.40,14.16,46.16,1027.36,2007.12,3187.43,2862.83,3246.53,600.16,587.88,12.26,0000 0000 0000 0000 000000
2016-09-01 12:32:44,0.16,0.82,0.00,30.27,33.62,36.37,14.21,46.23,1027.36,2007.17,3184.21,2860.83,3244.31,599.98,587.98,12.31,0000 0000 0000 0000 000000
2016-09-01 12:37:45,0.16,0.82,0.00,30.27,33.62,36.38,14.21,46.27,1027.35,2007.22,3180.75,2858.76,3241.92,599.93,587.81,12.36,0000 0000 0000 0000 000000
2016-09-01 12:42:47,0.16,0.83,0.00,30.25,33.60,36.38,14.19,46.23,1027.34,2007.52,3177.46,2856.74,3239.66,599.85,587.73,12.41,0000 0000 0000 0000 000000
2016-09-01 12:47:48,0.11,0.84,0.00,30.23,33.60,36.37,14.25,46.25,1027.32,2007.34,3174.61,2854.91,3237.56,599.91,587.80,12.46,0000 0000 0000 0000 000000
2016-09-01 12:52:49,0.10,0.85,0.00,30.20,33.58,36.34,14.16,46.09,1027.30,2007.22,3172.04,2853.26,3235.69,599.52,587.54,12.51,0000 0000 0000 0000 000000
2016-09-01 12:57:50,0.12,0.85,0.00,30.19,33.57,36.35,14.35,46.14,1027.28,2007.26,3169.61,2851.78,3233.91,600.68,588.63,12.56,0000 0000 0000 0000 000000
2016-09-01 13:02:51,0.15,0.86,0.00,30.16,33.56,36.33,14.25,46.10,1027.23,2007.49,3167.08,2850.24,3232.23,600.22,588.49,12.61,0000 0000 0000 0000 000000